[[{"header":{"parameterUnit":"m.s-1","parameterCategory":1,"la1":30.2991,"la2":30.254,"lo1":-89.0895,"lo2":-89.0444,"dy":0.0017,"dx":0.0017,"nx":28,"ny":28,"refTime":"2023-09-18T21:00:00:Z","depth":0,"parameterNumber":2,"parameterNumberName":"U-component_of_WINDS"},"data":[0,0,0,0,0,0,0,0,0,0,0,0,0,0,0,0,0,0,0,0,0,0,0,0,0,0,0,0,0,0,0,0,0,0,0,0,0,0,0,0,0,0,0,0,0,0,0,0,0,0,0,0,0,0,0,0,0,0,-4.8652,-4.8652,0,-4.8692,-4.8692,-4.8693,-4.864,-4.8638,-4.8636,-4.8634,-4.867,-4.8672,-4.8675,0,0,0,0,0,0,0,0,0,0,0,0,0,-4.8526,-4.8529,-4.8652,-4.8652,-4.8653,-4.8692,-4.8692,-4.8693,-4.864,-4.8638,-4.8635,-4.8633,-4.8669,-4.8672,-4.8675,0,0,0,0,0,0,0,0,0,0,0,0,0,-4.8575,-4.853,-4.8652,-4.8631,-4.863,-4.8692,-4.8692,-4.8693,-4.8641,-4.8638,-4.8635,-4.8632,-4.8668,-4.8672,-4.8676,-4.8757,0,0,-4.8688,-4.869,0,0,0,0,0,0,0,0,-4.8572,-4.858,-4.8634,-4.8633,-4.8631,-4.8658,-4.8661,-4.8714,-4.8641,-4.8636,-4.8634,-4.8631,-4.8668,-4.8672,-4.8685,-4.8759,-4.8761,-4.8688,-4.8691,-4.8693,-4.8694,0,0,0,0,0,0,0,-4.8569,-4.8578,-4.8667,-4.8635,-4.8633,-4.8619,-4.8623,-4.8671,-4.8667,-4.8637,-4.8633,-4.8639,-4.8666,-4.8681,-4.8686,-4.8761,-4.8688,-4.8692,-4.8694,-4.8696,-4.8905,-4.8908,0,0,0,0,0,0,-4.8569,-4.8575,-4.8666,-4.8669,-4.8595,-4.8624,-4.8628,-4.8652,-4.8667,-4.8666,-4.8641,-4.8636,-4.8676,-4.8681,-4.8687,-4.8783,-4.8693,-4.8696,-4.8699,-4.8902,-4.8906,-4.8909,0,0,0,0,0,0,-4.8566,-4.8577,-4.8665,-4.8621,-4.8631,-4.8629,-4.8657,-4.8655,-4.8669,-4.867,-4.8669,-4.8657,-4.8674,-4.8681,-4.8741,-4.8783,-4.8698,-4.8702,-4.8898,-4.8903,-4.8907,-4.8976,0,0,0,0,0,0,-4.8563,-4.8577,-4.8608,-4.8622,-4.8634,-4.8719,-4.8659,-4.8657,-4.8677,-4.8671,-4.8685,-4.8684,-4.8672,-4.8735,-4.8745,-4.8787,-4.8705,-4.8894,-4.89,-4.8906,-4.897,-4.8983,-4.8994,0,0,0,0,0,-4.8559,-4.8625,-4.861,-4.8621,-4.8673,-4.8722,-4.8728,-4.8714,-4.8681,-4.8712,-4.8713,-4.8684,-4.8778,-4.8742,-4.8752,-4.8797,-4.8891,-4.8899,-4.8905,-4.8965,-4.898,-4.8994,0,0,0,0,0,0,-4.8613,-4.8626,-4.861,-4.8683,-4.8702,-4.8713,-4.8751,-4.8731,-4.8758,-4.8751,-4.8731,-4.8735,-4.8799,-4.8804,-4.8763,-4.8877,-4.8829,-4.8838,-4.8871,-4.8885,-4.8897,-4.8893,-4.8708,0,0,0,0,0,-4.8634,-4.8674,-4.8683,-4.8746,-4.8757,-4.8753,-4.8773,-4.8762,-4.878,-4.8787,-4.8792,-4.8809,-4.8843,-4.8865,-4.8896,-4.8972,-4.8974,-4.9008,-4.902,-4.903,-4.9037,-4.9078,-4.9093,-4.8932,-4.8932,-4.8932,0,0,-4.8676,-4.8689,-4.8714,-4.8758,-4.8771,-4.8811,-4.876,-4.8804,-4.8833,-4.8793,-4.885,-4.8855,-4.8873,-4.8942,-4.8972,-4.8948,-4.9083,-4.9039,-4.9046,-4.9048,-4.9087,-4.9102,-4.9115,-4.8937,-4.8936,-4.8935,0,0,-4.8774,-4.8789,-4.8843,-4.8859,-4.8881,-4.8878,-4.8892,-4.8907,-4.8909,-4.8967,-4.8937,-4.8972,-4.903,-4.9044,-4.9059,-4.9167,-4.9141,-4.9178,-4.9237,-4.9278,-4.929,-4.9301,-4.9338,-4.9352,-4.9186,-4.9186,-4.9186,0,-4.8823,-4.8885,-4.8873,-4.8921,-4.894,-4.8909,-4.8964,-4.8979,-4.9009,-4.9022,-4.8996,-4.907,-4.908,-4.9151,-4.9178,-4.9192,-4.9205,-4.9174,-4.929,-4.9301,-4.9311,-4.9346,-4.936,-4.919,-4.919,-4.9189,-4.9189,0,-4.8944,-4.8987,-4.9029,-4.9061,-4.9086,-4.9137,-4.9132,-4.9158,-4.9146,-4.9146,-4.9205,-4.9217,-4.925,-4.9267,-4.9254,-4.9337,-4.9322,-4.9293,-4.9244,-4.9331,-4.9363,-4.9376,-4.9196,-4.9195,-4.9193,-4.9192,0,0,-4.9072,-4.9102,-4.9117,-4.9132,-4.9156,-4.9188,-4.9238,-4.9273,-4.9295,-4.9318,-4.9358,-4.9411,-4.9385,-4.9402,-4.9391,-4.9427,-4.951,-4.9394,-4.9394,-4.9413,-4.9602,-4.9621,-4.9637,-4.9495,-4.9498,-4.95,-4.96,0,-4.9169,-4.9257,-4.925,-4.9332,-4.9372,-4.9345,-4.9388,-4.9407,-4.941,-4.9443,-4.9445,-4.9482,-4.9446,-4.9456,-4.9491,-4.9493,-4.9547,-4.9486,-4.953,-4.9532,-4.9523,-4.9654,-4.9674,-4.9768,-4.9612,-4.9615,-4.9616,0,-4.9292,-4.9323,-4.941,-4.943,-4.9446,-4.9486,-4.9517,-4.955,-4.9571,-4.9571,-4.9592,-4.9576,-4.9625,-4.9578,-4.9645,-4.9604,-4.9622,-4.9626,-4.963,-4.963,-4.9577,-4.9656,-4.9797,-4.981,-4.9636,-4.9635,-4.9633,0,-4.9375,-4.9438,-4.9499,-4.9513,-4.9538,-4.9566,-4.9578,-4.9596,-4.9618,-4.9647,-4.966,-4.9694,-4.9711,-4.9736,-4.9729,-4.9696,-4.9798,-4.975,-4.9796,-4.9797,-4.9816,-4.9814,-4.9959,-4.9833,-4.9833,-4.9832,-4.9832,0,-4.9482,-4.9536,-4.9536,-4.9573,-4.9633,-4.9625,-4.9684,-4.9692,-4.971,-4.9747,-4.9726,-4.9761,-4.9751,-4.9785,-4.978,-4.9836,-4.9844,-4.9844,-4.9841,-4.9844,-4.9844,-4.9853,-4.9845,-4.9836,-4.9835,-4.9835,-4.9834,0,-4.9582,-4.9586,-4.9649,-4.967,-4.9677,-4.9719,-4.9736,-4.977,-4.9773,-4.9821,-4.9831,-4.9835,-4.9874,-4.9871,-4.9915,-4.9912,-4.998,-4.9971,-4.9973,-4.997,-5.0017,-5.0011,-5.017,-5.019,-5.0053,-5.0055,-5.0056,0,-4.9649,-4.969,-4.9716,-4.9741,-4.9755,-4.9795,-4.9818,-4.9813,-4.9838,-4.9868,-4.9898,-4.9937,-4.9967,-5.0031,-5.0037,-5.007,-5.006,-5.0114,-5.0065,-5.0067,-5.0058,-5.0055,-5.0058,-5.0122,-5.0124,-5.0125,-5.0126,0,-4.9765,-4.9766,-4.9802,-4.9839,-4.9868,-4.9897,-4.9922,-4.9943,-4.9941,-4.997,-5.0012,-5.0035,-5.0082,-5.012,-5.0153,-5.0163,-5.0144,-5.0143,-5.0155,-5.0156,-5.0155,-5.0154,-4.9997,-5.0138,-5.0136,-5.0136,-5.0135,-5.0135,-4.9849,-4.9885,-4.991,-4.9951,-4.9971,-4.9996,-5.003,-5.0039,-5.0074,-5.0113,-5.0108,-5.0155,-5.0177,-5.0219,-5.0233,-5.0269,-5.0249,-5.0267,-5.0271,-5.0275,-5.0279,-5.0153,-5.0275,-5.0275,-5.0274,-5.0274,-5.0274,0,-4.9963,-4.9979,-5.0017,-5.0055,-5.0088,-5.0072,-5.01,-5.0127,-5.0169,-5.0193,-5.0224,-5.0272,-5.031,-5.0321,-5.0357,-5.0383,-5.0375,-5.0392,-5.0388,-5.0391,-5.0296,-5.0281,-5.0398,-5.0398,-5.0398,-5.0398,-5.0398,-5.0398,-5.0025,-5.0085,-5.0089,-5.0159,-5.0174,-5.0221,-5.0239,-5.0262,-5.0281,-5.0337,-5.0369,-5.0377,-5.0395,-5.0433,-5.0467,-5.0469,-5.0481,-5.0502,-5.05,-5.041,-5.0397,-5.0385,-5.0371,-5.0506,-5.0506,-5.0592,-5.0593,-5.0593]},{"header":{"parameterUnit":"m.s-1","parameterCategory":1,"la1":30.2991,"la2":30.254,"lo1":-89.0895,"lo2":-89.0444,"dy":0.0017,"dx":0.0017,"nx":28,"ny":28,"refTime":"2023-09-18T21:00:00:Z","depth":0,"parameterNumber":3,"parameterNumberName":"V-component_of_WINDS"},"data":[0,0,0,0,0,0,0,0,0,0,0,0,0,0,0,0,0,0,0,0,0,0,0,0,0,0,0,0,0,0,0,0,0,0,0,0,0,0,0,0,0,0,0,0,0,0,0,0,0,0,0,0,0,0,0,0,0,0,0.2961,0.2961,0,0.2967,0.2967,0.2967,0.2985,0.2986,0.2986,0.2986,0.2988,0.2988,0.2988,0,0,0,0,0,0,0,0,0,0,0,0,0,0.2963,0.2963,0.2961,0.2961,0.2961,0.2967,0.2967,0.2967,0.2985,0.2986,0.2986,0.2987,0.2988,0.2988,0.2988,0,0,0,0,0,0,0,0,0,0,0,0,0,0.2965,0.2963,0.2961,0.2971,0.2972,0.2967,0.2967,0.2967,0.2985,0.2986,0.2986,0.2987,0.2989,0.2988,0.2988,0.2972,0,0,0.2986,0.2986,0,0,0,0,0,0,0,0,0.2964,0.2964,0.297,0.297,0.2971,0.2976,0.2968,0.2969,0.2985,0.298,0.2986,0.2987,0.2983,0.2983,0.2983,0.2972,0.2972,0.2986,0.2986,0.2985,0.2985,0,0,0,0,0,0,0,0.2964,0.2964,0.2963,0.297,0.2971,0.2974,0.2975,0.2969,0.2978,0.298,0.2982,0.2983,0.2984,0.2983,0.2983,0.2972,0.2986,0.2986,0.2985,0.2985,0.2951,0.295,0,0,0,0,0,0,0.2963,0.2964,0.2963,0.2964,0.297,0.2974,0.2975,0.2974,0.2978,0.298,0.2982,0.2983,0.2984,0.2984,0.2983,0.2966,0.2985,0.2985,0.2985,0.2951,0.295,0.295,0,0,0,0,0,0,0.2963,0.2963,0.2963,0.2964,0.2965,0.2973,0.2972,0.2974,0.2973,0.2979,0.2981,0.298,0.2985,0.2984,0.2975,0.2967,0.2985,0.2984,0.2952,0.2951,0.295,0.2932,0,0,0,0,0,0,0.2963,0.2963,0.2957,0.2964,0.2964,0.2955,0.2971,0.2973,0.2973,0.2975,0.2978,0.2979,0.2985,0.2976,0.2975,0.2966,0.2984,0.2953,0.2951,0.295,0.2933,0.293,0.2928,0,0,0,0,0,0.2963,0.2951,0.2957,0.2957,0.2958,0.2955,0.2955,0.2964,0.2972,0.2966,0.2971,0.2979,0.2968,0.2975,0.2974,0.2965,0.2953,0.2952,0.295,0.2934,0.2931,0.2928,0,0,0,0,0,0,0.2941,0.2952,0.2959,0.2948,0.2951,0.2958,0.2951,0.2959,0.2958,0.296,0.2969,0.297,0.296,0.2962,0.2969,0.2951,0.2962,0.296,0.295,0.2947,0.2944,0.2944,0.2983,0,0,0,0,0,0.2935,0.2933,0.2942,0.2932,0.2933,0.2942,0.2941,0.2948,0.295,0.295,0.2954,0.2955,0.2952,0.295,0.2947,0.2934,0.2935,0.2927,0.2925,0.2923,0.2921,0.2915,0.2912,0.2945,0.2945,0.2945,0,0,0.2922,0.2928,0.2926,0.2928,0.293,0.2927,0.2942,0.2938,0.2935,0.2949,0.2942,0.2945,0.2947,0.2936,0.2931,0.2937,0.2912,0.2921,0.2919,0.2918,0.2913,0.291,0.2907,0.2944,0.2944,0.2945,0,0,0.2898,0.2902,0.2895,0.2898,0.2902,0.2909,0.2907,0.2914,0.2917,0.291,0.2921,0.2918,0.2912,0.2913,0.2913,0.2892,0.2899,0.2891,0.2876,0.2871,0.2868,0.2866,0.2858,0.2855,0.2889,0.2889,0.2889,0,0.2881,0.2877,0.2889,0.2885,0.2886,0.29,0.2893,0.2895,0.2898,0.2898,0.2904,0.2899,0.2901,0.2892,0.2887,0.2886,0.2884,0.289,0.2868,0.2865,0.2863,0.2856,0.2854,0.2888,0.2888,0.2888,0.2888,0,0.2857,0.2854,0.2848,0.2853,0.2853,0.2847,0.2857,0.2856,0.2863,0.2869,0.2862,0.2866,0.2865,0.2863,0.2869,0.2855,0.2858,0.2866,0.2877,0.2859,0.2853,0.285,0.2886,0.2887,0.2887,0.2887,0,0,0.2816,0.283,0.2827,0.283,0.2838,0.2835,0.283,0.2832,0.283,0.2832,0.2828,0.2825,0.2833,0.2833,0.2839,0.2834,0.2818,0.2843,0.2843,0.2838,0.2803,0.2797,0.2793,0.2823,0.2823,0.2823,0.2803,0,0.2793,0.2786,0.2798,0.2788,0.2786,0.2802,0.2797,0.2801,0.2807,0.2805,0.2811,0.2809,0.2819,0.282,0.2816,0.2821,0.2811,0.2822,0.2819,0.2819,0.2818,0.279,0.2783,0.2764,0.28,0.28,0.28,0,0.2764,0.2768,0.2758,0.2768,0.2768,0.2764,0.2767,0.2766,0.2771,0.2775,0.2776,0.2785,0.2781,0.2792,0.2786,0.2794,0.2793,0.2796,0.2795,0.2795,0.2807,0.2788,0.2758,0.2755,0.2796,0.2796,0.2796,0,0.2736,0.2738,0.2733,0.2735,0.2747,0.2744,0.2748,0.2754,0.2754,0.2756,0.2757,0.2758,0.2758,0.2758,0.2767,0.2775,0.276,0.2772,0.2763,0.2763,0.2758,0.2758,0.2727,0.2759,0.2759,0.2759,0.2759,0,0.2709,0.2703,0.2721,0.2718,0.2711,0.2725,0.2718,0.2724,0.2729,0.2727,0.274,0.2737,0.275,0.2748,0.2755,0.2749,0.2749,0.2752,0.2754,0.2751,0.275,0.275,0.2751,0.2758,0.2758,0.2758,0.2758,0,0.2676,0.2688,0.2684,0.2696,0.2699,0.2693,0.2703,0.2701,0.2708,0.2705,0.2706,0.2717,0.2716,0.2726,0.2726,0.2731,0.2722,0.2726,0.272,0.2722,0.2712,0.2713,0.2679,0.2675,0.2709,0.2709,0.2709,0,0.2657,0.2653,0.2666,0.2666,0.2671,0.2671,0.2672,0.2686,0.2686,0.2693,0.2689,0.2691,0.2692,0.269,0.2698,0.2699,0.2703,0.2691,0.2703,0.27,0.2702,0.2703,0.2702,0.2688,0.2688,0.2687,0.2687,0,0.2623,0.263,0.2632,0.2637,0.2639,0.2643,0.2647,0.2647,0.2662,0.2662,0.2662,0.2664,0.2666,0.2667,0.2669,0.2673,0.2682,0.2684,0.2681,0.2678,0.2675,0.2677,0.2713,0.2684,0.2684,0.2684,0.2685,0.2685,0.2597,0.2594,0.2604,0.2606,0.2612,0.2616,0.2615,0.2623,0.2625,0.2629,0.2636,0.2636,0.2642,0.2647,0.265,0.265,0.2655,0.2652,0.2651,0.265,0.2649,0.2676,0.265,0.265,0.265,0.2651,0.2651,0,0.2563,0.2571,0.2573,0.2581,0.2583,0.2594,0.26,0.26,0.26,0.2606,0.2608,0.261,0.2611,0.262,0.2622,0.262,0.2624,0.262,0.262,0.2621,0.2643,0.2645,0.2617,0.2617,0.2617,0.2617,0.2617,0.2617,0.2546,0.2543,0.2552,0.2552,0.2559,0.256,0.2563,0.2567,0.2572,0.2574,0.2576,0.2582,0.2589,0.2592,0.2594,0.2597,0.2597,0.2591,0.2595,0.2616,0.2619,0.2622,0.2624,0.2591,0.2591,0.2572,0.2572,0.2572]}]]